sat.trackr.live / text

‹ back to catalog

STARLINK-30572

NORAD 58114 · 2023-161T

PAYLOAD ACTIVE UNKNOWN

§ Identity

Operator
Country
US
Launch date
2023-10-21
Launch site
AFWTR
Launch vehicle
Mass (kg)
RCS (m²)

Purposes: comms

External: N2YO · Heavens-Above · Gunter

§ Orbital elements

Epoch: 2026-09-20T22:34:54.252480Z

Period
93.85 min
Inclination
53.1611°
Eccentricity
0.0001441
Mean motion
15.34387087 rev/d
Perigee alt
461.8 km
Apogee alt
463.7 km
Semi-major
6,840.9 km
B*
5.3385e-5
RAAN
337.3208°
Arg perigee
91.3586°
Mean anomaly
268.7582°
Rev number
16,433

§ Raw data

STARLINK-305721 58114U 23161T   26263.94090570  .00001427  00000+0  53385-4 0  99962 58114  53.1611 337.3208 0001441  91.3586 268.7582 15.34387087164337

JSON: /api/v1/satellites/58114 · /tle

For live sub-satellite position, see the globe view (requires WebGL).

§ Visibility from observer

Set your observer location to see the next 7 days of passes ≥ 10°. The values pass through the URL so the page stays shareable.

No JS? Fill the form by hand. The geolocation button needs JavaScript.